www.pogodaiklimat.ru

Погода и климат >> Архив погоды >> Иран >> Sirjan


ПОГОДА в Sirjan

  • Прогноз погоды в Sirjan
  • Монитор погоды в Sirjan
  • Климат города

АРХИВ ПОГОДЫ в Sirjan

Время (UTC), дата Ветер
(напр.,м/с)
 
Видим.   Явления Облачность Т
(С)
Тd
(С)
f
(%)
Тe
(С)
Тes
(С)
Комфортность P
(гПа)
Po
(гПа)
Тmin
(С)
Tmax
(С)
R
(мм)
R24
(мм)
S
(см)
15 14.10 Ю 5 10 км гроза без осадков 9/9 1050 м
[Cb cap]
+18.9 +3.9 37 +19 +19 1015.4 830.8 +25.5
18 14.10 ЮВ 4 10 км {гроза} 3/3 1200 м
[Sc diur, vesp]
+17.1 +5.1 45 +17 +17 1014.2 831.5
21 14.10 ЮВ 3 10 км 4/4 1200 м
[Sc diur, vesp]
+14.9 +4.9 51 +14 +14 1013.2 831.3
00 15.10 В 3 10 км ясно +13.9 +4.6 53 +13 +13 1013.8 831.2
03 15.10 З 2 10 км ясно +8.9 +3.0 66 +7 +8 1018.2 832.0 +8.7
06 15.10 штиль 0 10 км ясно +18.1 +5.9 45 +18 +30 опасность
простуды
1015.7 832.2
09 15.10 штиль 0 10 км 3/3 1200 м
[Cu hum]
+22.9 +3.8 29 +23 +35 комфорт 1012.2 830.0
12 15.10 СЗ 6 10 км 4/4 1200 м
[Cu med, cong]
+24.6 +3.3 25 +24 +25 комфорт 1010.3 828.5
15 15.10 штиль 0 10 км 5/5 1200 м
[Sc diur, vesp]
+21.7 +2.4 28 +22 +22 комфорт 1013.2 828.9 +24.9
18 15.10 З 3 10 км 6/6 1200 м
[Sc diur, vesp]
+19.2 +1.5 31 +20 +20 1012.3 829.9
21 15.10 СЗ 2 10 км 3/1 1200 м
[Sc]
+16.4 +2.1 38 +17 +17 1011.5 829.7
00 16.10 СВ 4 10 км 8/8 1200 м
[Sc]
+16.2 +4.3 45 +16 +16 1010.7 829.5
03 16.10 СВ 3 10 км 5/5 1200 м
[Sc]
+14.8 +4.5 50 +14 +14 1013.7 830.6 +14.6
06 16.10 ЮВ 2 10 км 1/1 1200 м
[Cu hum]
+20.2 +5.1 37 +21 +29 комфорт 1013.7 831.7
09 16.10 З 2 10 км 4/4 1200 м
[Cu hum]
+23.2 +3.4 27 +23 +30 комфорт 1011.8 830.0
12 16.10 СЗ 5 10 км 6/6 1200 м
[Sc diur, vesp]
+23.0 +1.7 25 +22 +23 комфорт 1010.7 829.0
15 16.10 СВ 3 10 км 5/5 1200 м
[Sc diur, vesp]
+20.3 +0.6 27 +21 +21 комфорт 1013.3 829.9 +24.1
18 16.10 СВ 2 10 км 3/3 1200 м
[Sc diur, vesp]
+17.2 +1.0 33 +18 +18 1014.2 831.3
21 16.10 штиль 0 10 км 1/1 1200 м
[Sc]
+12.8 +2.5 49 +13 +13 1013.4 830.3
00 17.10 штиль 0 10 км 5/5 1200 м
[Sc]
+12.0 +1.6 49 +12 +12 1014.6 831.0
03 17.10 штиль 0 10 км 3/1 1200 м
[Sc Ac trans]
+9.6 -0.7 49 +9 +9 1017.4 831.8 +9.6
06 17.10 ЮЗ 3 10 км ясно +18.9 +3.7 36 +19 +26 1015.6 832.2
09 17.10 ЮЗ 5 10 км 4/4 1200 м
[Cu med, cong]
+22.6 +0.9 24 +22 +26 комфорт 1013.7 830.3
12 17.10 З 3 10 км 4/4 1200 м
[Cu hum]
+23.7 -1.6 19 +22 +24 комфорт 1010.6 827.8
15 17.10 СЗ 3 10 км 4/4 1200 м
[Cu med, cong]
+20.3 -0.4 25 +21 +21 комфорт 1012.4 827.8 +23.8
18 17.10 СВ 6 10 км ясно +17.5 -1.0 28 +17 +17 1011.8 829.0
21 17.10 В 3 10 км ясно +14.7 -1.2 33 +14 +14 1012.2 829.6
00 18.10 штиль 0 10 км ясно +10.2 -2.7 40 +10 +10 1013.4 829.6
03 18.10 штиль 0 10 км 3/3 1200 м
[Cu hum]
+10.9 +0.3 48 +11 +11 1015.3 830.5 +9.8
06 18.10 Ю 2 10 км 6/6 1050 м
[Cu Sc]
+18.1 +3.3 37 +19 +22 1013.9 830.7
09 18.10 З 6 10 км 3/3 1200 м
[Cu med, cong]
+22.2 +2.6 28 +22 +25 комфорт 1011.3 829.1
12 18.10 З 3 10 км 8/8 1050 м
[Cu Sc]
+23.6 +1.6 24 +23 +23 комфорт 1010.2 827.1
15 18.10 ЮВ 3 10 км 5/5 1050 м
[Cb calv]
+18.2 +3.4 37 +18 +18 1013.4 828.4 +24.1
18 18.10 ЮВ 3 10 км ясно +15.4 +3.3 44 +15 +15 1013.6 829.8
21 18.10 ЮВ 4 10 км ясно +13.3 +3.9 53 +12 +12 1013.1 829.7
00 19.10 штиль 0 10 км ясно +8.4 +1.1 60 +8 +8 1014.0 829.7
03 19.10 штиль 0 10 км ясно +6.7 +0.9 66 +6 +6 1018.1 831.0 +6.7
06 19.10 штиль 0 12 км ясно +17.4 +4.6 43 +17 +28 1016.3 831.9
09 19.10 ЮЗ 3 12 км 1/1 1200 м
[Cu hum]
+22.0 +2.9 28 +22 +31 комфорт 1013.9 830.6
12 19.10 З 5 12 км 1/1 1050 м
[Cu med, cong]
+23.0 +2.4 26 +23 +24 комфорт 1012.9 828.6
15 19.10 СЗ 2 10 км 3/1 1200 м
[Sc diur, vesp Ci fib]
+19.2 +0.9 29 +20 +20 1015.4 829.1 +23.2
18 19.10 штиль 0 10 км ясно +15.9 +0.3 35 +16 +16 1015.2 830.8
21 19.10 ЮВ 3 10 км ясно +12.7 +1.5 46 +12 +12 1013.3 830.6
00 20.10 В 3 10 км ясно +14.8 +2.6 44 +14 +14 1012.6 830.2
03 20.10 В 3 10 км ясно +12.2 +1.9 49 +11 +11 1015.8 831.0 +11.3
06 20.10 ЮВ 3 10 км ясно +20.6 +3.9 33 +21 +28 комфорт 1015.8 832.5
09 20.10 СВ 3 10 км 5/5 1050 м
[Cb calv]
+24.1 +4.1 27 +24 +28 комфорт 1013.0 830.6
12 20.10 З 6 10 км 6/6 1050 м
[Cb calv]
+23.7 +1.6 23 +23 +23 комфорт 1011.0 829.0
15 20.10 ЮВ 4 10 км 6/6 1050 м
[Cb calv]
+19.9 +2.9 32 +20 +20 1014.2 830.0 +24.6
18 20.10 СЗ 5 7000 м гроза без осадков 9/9 900 м
[Cb calv]
+18.4 +3.2 36 +18 +18 1012.9 830.8
21 20.10 СВ 3 10 км 3/3 1200 м
[Sc]
+14.8 +5.0 52 +14 +14 1012.7 830.6
00 21.10 В 3 10 км 1/1 1200 м
[Sc]
+14.2 +3.0 47 +13 +13 1012.8 830.2
03 21.10 Ю 2 10 км 1/1 1200 м
[Sc]
+12.3 +1.5 48 +12 +12 1016.2 831.5 +12.2
06 21.10 штиль 0 10 км ясно +20.1 +3.1 32 +20 +31 1015.6 832.9
09 21.10 З 4 10 км 5/5 1200 м
[Cu med, cong Ci fib]
+23.9 +2.8 25 +23 +27 комфорт 1013.5 831.1

 

Местоположение метеостанции Sirjan (Иран): широта 29.47 долгота 55.72 высота над уровнем моря 1739 м.

В архиве по умолчанию представлена погода в Sirjan за последнюю неделю. Архивные данные за месяц целиком и за предыдущие месяцы, начиная с января 2011 года, Вы можете получить, выбрав интересующий диапазон дат из раскрывающегося списка и нажав кнопку "Ввод!".


*Определитесь, кто Вы:
робот инопланетянин человек

Внимание! Время в таблицах - всемирное. Для получения местного времени необходимо прибавить поправку, которая в Sirjan равна 3.5 ч.

Смотрите также архив погоды в соседних городах и на ближайших метеорологических станциях:

Погода в Baft (Иран) (87 км)
Погода в Kerman (Иран) (149 км)
Погода в Fasa (Иран) (206 км)
Погода в Kahnuj (Иран) (255 км)
Погода в Bandarabbass (Иран) (258 км)
Погода в Bam (Иран) (263 км)
Погода в Yazd (Иран) (303 км)
Погода в Shiraz (Иран) (309 км)
Погода в Bandar Lengeh (Иран) (333 км)
Погода в Abadeh (Иран) (349 км)

Пояснения к столбцам:

Ветер - указаны скорость ветра в м/с - средняя за 10 мин, порывы в срок и между сроками (в фигурных скобках) и направление, откуда дует ветер: С - северный, СВ - северо-восточный, В - восточный, ЮВ - юго-восточный, Ю - южный, ЮЗ - юго-западный, З - западный, СЗ - северо-западный.
Видимость - горизонтальная дальность видимости в метрах или километрах. При видимости от 1 до 10 км при отсутствии осадков обычно наблюдается дымка, при ухудшении видимости до 1 км и менее - туман. В сухую погоду видимость может ухудшаться дымом, пылью или мглою.
Явления - указаны атмосферные явления, наблюдавшиеся в срок или в последний час перед сроком; фигурными скобками обозначены явления, наблюдавшиеся между сроками (за 1-3 часа до срока); квадратными скобками обозначены град или гололедные отложения с указанием их диаметра в мм.
Облачность - указаны через наклонную черту общая и нижняя облачность в баллах и высота нижней границы облаков в метрах; квадратными скобками обозначены формы облаков: Ci - перистые, Cs - перисто-слоистые, Cc - перисто-кучевые, Ac - высококучевые, As - высокослоистые, Sc - слоисто-кучевые, Ns - слоисто-дождевые, Cu - кучевые, Cb - кучево-дождевые. Подробнее классификацию облаков см. в Атласе облаков (PDF).
T - Температура воздуха - температура, измеренная на высоте 2 м над землей.
Td - Температура точки росы - температура, при понижении до которой содержащийся в воздухе водяной пар достигнет насыщения.
f - Относительная влажность воздуха - влажноcть воздуха, измеренная на высоте 2 м над землей.
Te - Эффективная температура - температура, которую ощущает одетый по сезону человек в тени. Характеристика душности погоды. При расчете учитывается влияние влажности воздуха и скорости ветра на теплоощущения человека.
Tes - Эффективная температура на солнце - температура, которую ощущает человек, с поправкой на солнечный нагрев. Характеристика знойности погоды. Зависит от высоты солнца над горизонтом, облачности и скорости ветра. Ночью, в пасмурную погоду, а также при ветре 12 м/с и более поправка равна нулю.
P - Атмосферное давление - приведенное к уровню моря атмосферное давление.
Po - Атмосферное давление - измеренное на уровне метеостанции атмосферное давление.
Tmin - Минимальная температура - минимум температуры воздуха на высоте 2 м над землей.
Tmax - Максимальная температура - максимум температуры воздуха на высоте 2 м над землей.
R - Количество осадков - Количество выпавших осадков за период времени, мм. При наведении курсора мыши на число - период времени, за который выпало указанное количество осадков.
R24 - Количество осадков - Количество выпавших осадков за 24 часа, мм.
S - Снежный покров - Высота снежного покрова, см. При наведении курсора мыши на число - состояние снежного покрова и степень покрытия местности в баллах.